Regional Weather Roundup
Issued by NWS

Home | Current Version | Previous Version | Text Only | Print | Product List | Glossary On
Versions: 1 2 3 4 5 6 7 8 9 10 11 12 13 14 15 16 17 18 19 20 21 22 23 24 25 26 27 28
000
ASUS44 KJAN 091710
RWRMS

MISSISSIPPI HOURLY WEATHER ROUNDUP
NATIONAL WEATHER SERVICE JACKSON MS
1100 AM CST FRI DEC 09 2016

NOTE: "FAIR: INDICATES FEW OR NO CLOUDS BELOW 12,000 FEET WITH NO
SIGNIFICANT WEATHER AND/OR OBSTRUCTIONS TO VISIBILITY.

MSZ001>002-007>008-010>013-018>021-025>028-034>036-091800-
NORTHWEST MISSISSIPPI

CITY           SKY/WX    TMP DP  RH WIND       PRES   REMARKS
CLEVELAND      FAIR      33  21  62 N9        30.68F WCI  25
GREENWOOD      SUNNY     36  15  42 N8        30.66F WCI  30
GREENVILLE     SUNNY     34  21  59 N9        30.68F WCI  27
OXFORD         FAIR      32  16  51 N7        30.66F WCI  26
WINONA         FAIR      33  17  51 NE7       30.64S WCI  27
$$

MSZ003>006-009-014>017-022>024-029>033-037>039-091800-
NORTHEAST MISSISSIPPI

CITY           SKY/WX    TMP DP  RH WIND       PRES   REMARKS
COLUMBUS AFB   SUNNY     36  20  54 NW6       30.62F WCI  31
GOLDN TRIANGLE SUNNY     37  18  44 N8        30.58F WCI  31
STARKVILLE     FAIR      36  21  55 N7        30.64F WCI  30
TUPELO         SUNNY     33  16  49 NW8       30.63F WCI  26
$$

MSZ040-058-091800-
CENTRAL MISSISSIPPI

CITY           SKY/WX    TMP DP  RH WIND       PRES   REMARKS
JACKSON INTL   SUNNY     38  19  46 N12       30.62S WCI  30
JACKSON HAWKNS NOT AVBL
MADISON        FAIR      36  19  51 NE5       30.62F WCI  32
MERIDIAN KEY   SUNNY     41  17  38 N10       30.59F
MERIDIAN NAS   SUNNY     39  16  39 VRB5      30.60F
VICKSBURG VKS  SUNNY     41  19  42 N9        30.63F
$$

MSZ059>079-091800-
SOUTH MISSISSIPPI

CITY           SKY/WX    TMP DP  RH WIND       PRES   REMARKS
BROOKHAVEN     FAIR     N/A N/A N/A N10       30.60F
COLUMBIA       FAIR      43  16  33 N9        30.60F
HATTIESBURG    SUNNY     42  16  34 N10       30.58F
LAUREL         FAIR      41  16  36 N8G16     30.59F
MCCOMB         SUNNY     41  14  33 N14       30.57F
NATCHEZ        SUNNY     39  18  41 NE12      30.61F WCI  32
PINE BELT      SUNNY     43  16  33 N15       30.59F
$$

MSZ080>082-091800-
COASTAL MISSISSIPPI

CITY           SKY/WX    TMP DP  RH WIND       PRES   REMARKS
BILOXI         SUNNY     44  20  37 NE13      30.52F
PASCAGOULA     SUNNY     45  17  32 N13       30.52F
GULFPORT       SUNNY     46  19  34 N12       30.52F
$$

LAZ007>009-015>016-023>026-091800-
NORTHEAST LOUISIANA

CITY           SKY/WX    TMP DP  RH WIND       PRES   REMARKS
BASTROP        FAIR      37  20  49 NE8       30.67F WCI  31
TALLULAH/VBURG SUNNY     39  20  46 NE13      30.65F WCI  31
VIDALIA        FAIR      39  22  50 N9G16     30.66F WCI  33
$$




USA.gov is the U.S. government's official web portal to all federal, state and local government web resources and services.